Terug naar catalogus

OPS 9311

IDSCS 1

ActiefMilitairMEO
NORAD 2215·PAYLOAD·🇺🇸 United States

Gelanceerd Jun 16, 1966 vanaf Cape Canaveral Space Force Station

Loading…

Volgende Passages (komende 24 uur)

TLE

VersSource: Space-Track

Epoch: Sep 13, 2026, 18:25 UTC

1 02215U 66053B   26256.76803993 -.00000084  00000-0  00000-0 0  9999
2 02215   8.8299  42.7829 0030643 225.5994 134.2308  1.07909198135321

Volg OPS 9311 in realtime met AllMySat

Download on the App Store